Weather observations for the past three days for
Unalakleet
Imperial (Metric)
Date Time (akdt) Wind (mph) Vis. (mi.) Weather Sky Cond. Temperature (ºF) Relative Humidity Wind Chill (°F) Heat Index (°F) Pressure Precipitation (in)
Air Dwpt 6 hour altimeter (in) sea level (mb) 1 hr 3 hr 6 hr
Max. Min.
12 18:56 E 18 G 25 10.00 Light Rain FEW029 BKN037 OVC065 54 48.9 83% 29.47 998.4
12 17:56 E 14 G 21 10.00 Overcast BKN036 BKN047 OVC060 55.9 48 75% 29.5 999.3
12 16:56 E 20 G 25 10.00 Mostly Cloudy SCT032 BKN041 BKN080 55 48 77% 29.52 999.9
12 15:56 E 20 G 28 10.00 Overcast BKN035 BKN044 OVC060 55.9 46.9 55.9 55 72% 29.54 1000.7
12 14:56 E 16 G 23 10.00 Light Rain FEW033 BKN042 OVC065 55 48 77% 29.57 1001.7
12 13:56 E 12 10.00 Light Rain FEW026 OVC036 55.9 50 81% 29.6 1002.6
12 12:56 E 15 10.00 Overcast FEW032 BKN047 OVC060 55 50 83% 29.62 1003.5
12 11:56 E 16 10.00 Overcast FEW031 BKN049 OVC065 55 48.9 80% 29.64 1004.0
12 10:56 E 17 10.00 Mostly Cloudy BKN075 BKN100 55.9 48 75% 29.65 1004.5
12 09:56 E 18 10.00 Mostly Cloudy FEW048 BKN070 55 48 55 53.1 77% 29.68 1005.3
12 08:56 E 14 10.00 Overcast BKN060 OVC100 55 46.9 74% 29.69 1005.8
12 07:56 E 20 10.00 Mostly Cloudy FEW002 BKN085 55 46 72% 29.71 1006.4
12 06:56 E 20 10.00 Overcast FEW002 BKN090 OVC110 54 46.9 77% 29.71 1006.3
12 05:56 E 13 10.00 Overcast FEW002 OVC095 54 46.9 77% 29.73 1007.1
12 04:56 E 14 10.00 Overcast FEW002 OVC090 54 46.9 77% 29.75 1007.6
12 03:56 E 14 10.00 Overcast OVC085 54 48 60.1 53.1 80% 29.76 1007.9
12 02:56 E 10 10.00 Overcast FEW002 OVC095 54 48 80% 29.77 1008.3
12 01:56 E 10 10.00 Overcast FEW002 SCT070 OVC100 55 48 77% 29.77 1008.6
12 00:56 E 8 10.00 A Few Clouds FEW002 54 48 80% 29.78 1008.9
11 23:56 E 12 10.00 Overcast OVC080 57.9 48.9 72% 29.78 1008.9
11 22:56 E 6 10.00 Mostly Cloudy BKN080 57.9 48.9 72% 29.78 1008.8
11 21:56 E 9 10.00 Overcast BKN055 OVC070 60.1 48.9 64.9 60.1 67% 29.78 1008.8
11 20:56 Calm 10.00 Overcast BKN060 OVC080 61 50 67% 29.78 1008.8
11 19:56 E 10 10.00 Light Rain BKN050 OVC065 60.1 50 70% 29.79 1009.1
11 18:56 E 8 10.00 Overcast SCT060 OVC075 64 48.9 58% 29.79 1009.1
11 17:56 SE 5 10.00 Overcast BKN055 OVC080 63 48 58% 29.8 1009.6
11 16:56 S 8 10.00 Overcast FEW050 OVC070 64 46 52% 29.81 1009.7
11 15:56 SE 12 10.00 Overcast FEW055 BKN070 OVC090 63 46 64 57 54% 29.82 1010.1
11 14:56 SE 16 G 23 10.00 Mostly Cloudy SCT002 BKN110 62.1 46 56% 29.83 1010.4
11 13:56 SE 14 10.00 Overcast SCT048 OVC080 61 46 58% 29.83 1010.6
11 12:56 SE 13 10.00 A Few Clouds FEW042 60.1 45 58% 29.83 1010.3
11 11:56 SE 9 10.00 Partly Cloudy FEW045 SCT090 60.1 46 60% 29.82 1010.0
11 10:56 SE 14 10.00 A Few Clouds FEW002 59 46 62% 29.81 1009.7
11 09:56 E 10 10.00 Partly Cloudy SCT048 57 50 57.9 51.1 78% 29.8 1009.6
11 08:56 E 9 10.00 Partly Cloudy FEW002 SCT100 55.9 50 81% 29.8 1009.4
11 07:56 E 8 10.00 Partly Cloudy SCT085 53.1 48.9 86% 29.79 1009.2
11 06:56 E 10 10.00 Overcast FEW002 OVC080 52 48 86% 29.78 1008.9
11 05:56 E 5 10.00 Overcast BKN027 OVC070 52 48 86% 29.77 1008.5
11 04:56 E 9 10.00 Light Rain FEW045 OVC070 51.1 48 89% 29.77 1008.3
11 03:56 E 10 10.00 Light Rain OVC060 52 48 54 51.1 86% 29.76 1008.0
11 02:56 E 7 10.00 Light Rain OVC060 52 48 86% 29.75 1007.7
11 01:56 E 8 10.00 Light Rain OVC065 52 48.9 89% 29.74 1007.4
11 00:56 E 10 10.00 Light Rain OVC070 53.1 48.9 86% 29.73 1006.9
10 23:56 SE 7 10.00 Light Rain SCT028 BKN034 OVC065 54 50 87% 29.71 1006.4
10 22:56 E 7 10.00 Light Rain BKN030 BKN036 OVC065 54 51.1 90% 29.69 1005.8
10 21:56 E 6 10.00 Light Rain FEW050 OVC065 54 51.1 57.9 54 90% 29.68 1005.3
10 20:56 E 7 10.00 Light Rain SCT028 BKN047 OVC060 55 52 90% 29.67 1004.9
10 19:56 SE 8 10.00 Light Rain FEW024 BKN048 OVC060 55.9 52 87% 29.66 1004.8
10 18:56 E 9 10.00 Light Rain BKN030 OVC040 57 52 83% 29.65 1004.3
10 17:56 SE 9 10.00 Light Rain SCT024 BKN028 OVC045 57.9 53.1 84% 29.63 0.0
10 16:56 SE 10 9.00 Light Rain FEW022 BKN039 OVC047 57 52 83% 29.62 0.0
10 15:56 E 10 10.00 Light Rain SCT026 BKN035 OVC043 55.9 52 57 54 87% 29.61 0.0
10 14:56 SE 10 10.00 Light Rain SCT028 BKN037 OVC045 55.9 52 87% 29.59 0.0
10 13:56 E 9 8.00 Rain SCT028 OVC038 55 52 90% 29.59 0.0
10 12:56 E 12 10.00 Light Rain BKN026 BKN035 OVC049 55 51.1 87% 29.57 0.0
10 11:56 SE 9 10.00 Light Rain OVC026 54 51.1 90% 29.56 0.0
10 10:56 E 13 10.00 Light Rain BKN026 BKN034 OVC050 54 52 93% 29.55 0.0
10 09:56 E 13 10.00 Light Rain FEW029 OVC045 54 52 93% 29.53 0.0
10 08:56 E 12 10.00 Light Rain FEW045 OVC060 53.1 51.1 93% 29.52 0.0
10 07:56 E 10 10.00 Light Rain FEW030 BKN046 OVC055 52 50 93% 29.51 0.0
10 06:56 E 10 10.00 Light Rain NULL 51.1 50 96% 29.51 0.0
10 03:56 E 8 10.00 Light Rain FEW049 OVC070 51.1 48.9 53.1 51.1 92% 29.49 999.1
10 02:56 E 8 10.00 Light Rain BKN035 OVC047 51.1 50 96% 29.5 999.2
10 01:56 E 7 10.00 Light Rain SCT028 BKN050 OVC065 51.1 50 96% 29.5 999.1
10 00:56 E 7 10.00 Light Rain FEW026 BKN036 OVC050 52 50 93% 29.49 999.1
09 23:56 E 6 10.00 Overcast OVC023 53.1 51.1 93% 29.49 998.9
09 22:56 N 5 10.00 Overcast SCT024 BKN050 OVC060 52 50 93% 29.49 998.8
09 21:56 W 5 10.00 Overcast BKN021 OVC028 52 50 53.1 50 93% 29.48 998.7
09 20:56 N 3 4.00 Fog/Mist FEW016 BKN025 OVC033 52 48.9 89% 29.48 998.7
09 19:56 NW 3 10.00 Overcast FEW019 BKN036 OVC043 52 48.9 89% 29.48 998.7
Date Time (akdt) Wind (mph) Vis. (mi.) Weather Sky Cond. Air Dwpt Max. Min. Relative Humidity Wind Chill (°F) Heat Index (°F) altimeter (in) sea level (mb) 1 hr 3 hr 6 hr
6 hour
Temperature (ºF) Pressure Precipitation (in)